[[{"header":{"parameterUnit":"m.s-1","parameterCategory":1,"la1":30.2991,"la2":30.254,"lo1":-89.0895,"lo2":-89.0444,"dy":0.0017,"dx":0.0017,"nx":28,"ny":28,"refTime":"2025-05-23T09:00:00:Z","depth":0,"parameterNumber":2,"parameterNumberName":"U-component_of_WINDS"},"data":[0,0,0,0,0,0,0,0,0,0,0,0,0,0,0,0,0,0,0,0,0,0,0,0,0,0,0,0,0,0,0,0,0,0,0,0,0,0,0,0,0,0,0,0,0,0,0,0,0,0,0,0,0,0,0,0,0,0,0.0835,0.0835,0,0.0904,0.0905,0.0905,0.0913,0.0912,0.0912,0.0911,0.0985,0.0988,0.099,0,0,0,0,0,0,0,0,0,0,0,0,0,0.0711,0.0713,0.0834,0.0835,0.0836,0.0904,0.0905,0.0906,0.0913,0.0912,0.0912,0.0911,0.0984,0.0987,0.099,0,0,0,0,0,0,0,0,0,0,0,0,0,0.0771,0.0714,0.0834,0.0848,0.085,0.0903,0.0905,0.0906,0.0913,0.0912,0.0911,0.091,0.0983,0.0987,0.0991,0.1036,0,0,0.1003,0.1005,0,0,0,0,0,0,0,0,0.0767,0.0775,0.0845,0.0847,0.0849,0.0899,0.0888,0.095,0.0914,0.0889,0.0911,0.091,0.0957,0.0963,0.0979,0.104,0.1043,0.1003,0.1006,0.1007,0.1008,0,0,0,0,0,0,0,0.0763,0.0772,0.0862,0.0846,0.0849,0.0851,0.0859,0.09,0.0929,0.0892,0.0892,0.09,0.0958,0.0975,0.0981,0.1044,0.1003,0.1007,0.1009,0.1011,0.1145,0.1146,0,0,0,0,0,0,0.0756,0.0769,0.086,0.0864,0.0805,0.0855,0.0863,0.0884,0.0928,0.0934,0.0901,0.09,0.0969,0.0976,0.0983,0.1039,0.1007,0.1011,0.1013,0.1144,0.1145,0.1146,0,0,0,0,0,0,0.0754,0.0764,0.0857,0.0817,0.0829,0.0858,0.0882,0.0886,0.0903,0.0935,0.0941,0.0913,0.0968,0.0978,0.1023,0.1041,0.1013,0.1016,0.1142,0.1144,0.1146,0.115,0,0,0,0,0,0,0.075,0.0763,0.078,0.0817,0.0831,0.0895,0.0883,0.0888,0.0909,0.0909,0.0948,0.0953,0.0968,0.1017,0.1027,0.1046,0.1019,0.1141,0.1143,0.1145,0.1149,0.1152,0.1155,0,0,0,0,0,0.0745,0.078,0.0781,0.0792,0.0853,0.0896,0.0904,0.092,0.091,0.0928,0.0949,0.0952,0.1038,0.1021,0.1032,0.1054,0.114,0.1142,0.1145,0.1147,0.1152,0.1155,0,0,0,0,0,0,0.0746,0.0785,0.0787,0.0834,0.0861,0.0897,0.092,0.0924,0.0955,0.0954,0.0973,0.0981,0.1025,0.1044,0.1025,0.1099,0.1088,0.1093,0.1086,0.109,0.1093,0.1088,0.1023,0,0,0,0,0,0.0752,0.0782,0.0815,0.0854,0.0867,0.0891,0.091,0.092,0.0949,0.0961,0.0986,0.1015,0.1048,0.107,0.1103,0.1151,0.116,0.1171,0.1174,0.1177,0.1181,0.1208,0.1213,0.1155,0.1155,0.1155,0,0,0.0764,0.0789,0.0807,0.0854,0.0877,0.0908,0.0901,0.0935,0.0959,0.0967,0.101,0.1029,0.1063,0.111,0.1131,0.1127,0.1199,0.118,0.1182,0.1185,0.1211,0.1216,0.1221,0.1157,0.1157,0.1157,0,0,0.0802,0.0824,0.0858,0.088,0.0913,0.0929,0.0937,0.0971,0.0984,0.1027,0.1033,0.1062,0.112,0.1144,0.1163,0.1208,0.1212,0.1219,0.1236,0.1261,0.1266,0.127,0.1286,0.1291,0.1223,0.1223,0.1223,0,0.0813,0.0861,0.0875,0.0909,0.0929,0.0936,0.0971,0.0992,0.1034,0.1049,0.1042,0.1113,0.1137,0.1189,0.1199,0.1215,0.1225,0.1215,0.1264,0.1268,0.1272,0.1287,0.1293,0.1223,0.1223,0.1223,0.1223,0,0.0872,0.0905,0.0929,0.0968,0.0991,0.1026,0.1045,0.1067,0.1074,0.109,0.1135,0.1163,0.1201,0.1214,0.1222,0.1266,0.1262,0.1259,0.1248,0.1278,0.1293,0.1299,0.1224,0.1224,0.1224,0.1224,0,0,0.0914,0.096,0.0968,0.0986,0.1022,0.1048,0.1083,0.1118,0.1137,0.1166,0.1195,0.1242,0.124,0.1262,0.1272,0.1295,0.1328,0.1289,0.129,0.1295,0.1379,0.1381,0.1388,0.1331,0.1332,0.1333,0.1376,0,0.0957,0.1017,0.103,0.1082,0.1113,0.1119,0.1149,0.1174,0.119,0.1219,0.1237,0.127,0.1264,0.1277,0.1299,0.1319,0.1345,0.1316,0.1359,0.136,0.135,0.1396,0.1398,0.1438,0.1382,0.1383,0.1384,0,0.1014,0.1043,0.1097,0.1129,0.1142,0.1169,0.1202,0.1229,0.1258,0.1268,0.1292,0.13,0.1336,0.1322,0.1373,0.1353,0.1371,0.1383,0.1385,0.139,0.1374,0.1402,0.1451,0.1457,0.1393,0.1393,0.1392,0,0.1039,0.1091,0.113,0.1145,0.1183,0.1201,0.1218,0.1246,0.1266,0.1296,0.1309,0.1343,0.1362,0.1388,0.1405,0.1393,0.1453,0.1441,0.1463,0.1463,0.1476,0.1475,0.1529,0.1487,0.1487,0.1487,0.1487,0,0.1085,0.1118,0.1142,0.1166,0.1203,0.1218,0.1255,0.1272,0.1297,0.1325,0.1332,0.1358,0.1379,0.1408,0.1422,0.1461,0.1469,0.1479,0.1482,0.1478,0.1477,0.1491,0.1489,0.1489,0.1488,0.1488,0.1488,0,0.112,0.1137,0.118,0.1211,0.122,0.1246,0.1273,0.1297,0.1312,0.1347,0.1356,0.1381,0.1415,0.1434,0.1478,0.1487,0.1531,0.1533,0.1521,0.1523,0.1543,0.1541,0.1608,0.1618,0.1569,0.157,0.157,0,0.1148,0.1173,0.1207,0.1225,0.1242,0.1272,0.1292,0.1308,0.1329,0.1363,0.1383,0.1417,0.1446,0.1501,0.1523,0.1557,0.156,0.1581,0.1565,0.156,0.156,0.1558,0.1561,0.1584,0.1584,0.1584,0.1585,0,0.1196,0.1203,0.1232,0.1263,0.1286,0.1312,0.1337,0.1352,0.1372,0.1395,0.143,0.1452,0.1495,0.153,0.1565,0.1583,0.1587,0.1589,0.1596,0.1593,0.1585,0.159,0.1529,0.1588,0.1588,0.1587,0.1587,0.1587,0.1229,0.1251,0.1278,0.1309,0.1329,0.1353,0.1376,0.1394,0.1422,0.1458,0.1466,0.1502,0.1531,0.1578,0.1596,0.1626,0.1622,0.1632,0.1634,0.1637,0.1637,0.1579,0.1632,0.1632,0.1632,0.1632,0.1632,0,0.1278,0.1295,0.1323,0.1357,0.1382,0.1382,0.141,0.1431,0.1462,0.1488,0.1515,0.1554,0.1587,0.1612,0.1645,0.1664,0.1667,0.1673,0.1672,0.1676,0.1639,0.163,0.167,0.167,0.167,0.167,0.167,0.167,0.1306,0.1344,0.1354,0.1402,0.1419,0.1453,0.1469,0.1491,0.1511,0.1554,0.1581,0.1596,0.1621,0.1656,0.1687,0.1693,0.1705,0.171,0.1717,0.1682,0.1678,0.1675,0.1666,0.1713,0.1713,0.1751,0.1752,0.1752]},{"header":{"parameterUnit":"m.s-1","parameterCategory":1,"la1":30.2991,"la2":30.254,"lo1":-89.0895,"lo2":-89.0444,"dy":0.0017,"dx":0.0017,"nx":28,"ny":28,"refTime":"2025-05-23T09:00:00:Z","depth":0,"parameterNumber":3,"parameterNumberName":"V-component_of_WINDS"},"data":[0,0,0,0,0,0,0,0,0,0,0,0,0,0,0,0,0,0,0,0,0,0,0,0,0,0,0,0,0,0,0,0,0,0,0,0,0,0,0,0,0,0,0,0,0,0,0,0,0,0,0,0,0,0,0,0,0,0,3.6952,3.6952,0,3.6984,3.6984,3.6984,3.6921,3.6919,3.6917,3.6915,3.6944,3.6946,3.6949,0,0,0,0,0,0,0,0,0,0,0,0,0,3.6833,3.6835,3.6952,3.6952,3.6953,3.6984,3.6984,3.6984,3.6921,3.6919,3.6916,3.6914,3.6943,3.6946,3.6949,0,0,0,0,0,0,0,0,0,0,0,0,0,3.6876,3.6836,3.6952,3.6925,3.6923,3.6983,3.6984,3.6984,3.6922,3.6919,3.6916,3.6913,3.6942,3.6946,3.695,3.7036,0,0,3.6962,3.6964,0,0,0,0,0,0,0,0,3.6874,3.6881,3.6929,3.6927,3.6925,3.6945,3.6952,3.7002,3.6923,3.6922,3.6915,3.6911,3.6947,3.695,3.6963,3.7038,3.7039,3.6962,3.6965,3.6967,3.6968,0,0,0,0,0,0,0,3.6871,3.6879,3.6964,3.693,3.6927,3.691,3.6913,3.6961,3.6951,3.6922,3.6918,3.6922,3.6945,3.6959,3.6963,3.7039,3.6962,3.6966,3.6968,3.697,3.7185,3.7189,0,0,0,0,0,0,3.6872,3.6877,3.6963,3.6965,3.6891,3.6915,3.6918,3.6942,3.6951,3.6949,3.6925,3.6919,3.6953,3.6958,3.6964,3.7065,3.6967,3.697,3.6973,3.7182,3.7186,3.719,0,0,0,0,0,0,3.687,3.688,3.6962,3.692,3.6929,3.692,3.6948,3.6944,3.6958,3.6953,3.695,3.6942,3.6951,3.6958,3.7019,3.7065,3.6972,3.6976,3.7178,3.7183,3.7188,3.7269,0,0,0,0,0,0,3.6866,3.688,3.6914,3.6921,3.6932,3.7018,3.695,3.6947,3.6966,3.6958,3.6968,3.6966,3.6949,3.7013,3.7023,3.7069,3.6979,3.7174,3.7181,3.7186,3.7262,3.7276,3.7288,0,0,0,0,0,3.6862,3.6935,3.6916,3.6927,3.6974,3.7021,3.7027,3.7007,3.697,3.7003,3.6999,3.6966,3.7058,3.702,3.703,3.7078,3.7171,3.7179,3.7186,3.7256,3.7273,3.7287,0,0,0,0,0,0,3.6932,3.6935,3.6914,3.6992,3.7007,3.7011,3.7052,3.7026,3.7051,3.7043,3.7016,3.7019,3.7085,3.7087,3.7044,3.7162,3.7108,3.7118,3.7158,3.7174,3.7187,3.7185,3.6982,0,0,0,0,0,3.6957,3.6996,3.6996,3.7064,3.7073,3.7062,3.7081,3.7065,3.7079,3.7084,3.7085,3.7099,3.7131,3.7152,3.7182,3.7262,3.7262,3.73,3.7313,3.7323,3.7332,3.7373,3.739,3.7214,3.7214,3.7214,0,0,3.7008,3.7014,3.7041,3.7079,3.7088,3.7128,3.7067,3.7112,3.7141,3.7091,3.7148,3.7149,3.7163,3.7233,3.7264,3.7237,3.738,3.7333,3.7341,3.7344,3.7383,3.7399,3.7414,3.7219,3.7218,3.7218,0,0,3.7121,3.7131,3.7188,3.7199,3.7214,3.7206,3.722,3.7227,3.7226,3.7284,3.7247,3.7279,3.7336,3.7346,3.7359,3.7475,3.7445,3.7485,3.7553,3.7593,3.7607,3.7619,3.766,3.7675,3.7494,3.7494,3.7494,0,3.7182,3.7242,3.722,3.7268,3.7285,3.7242,3.7299,3.731,3.7334,3.7346,3.7315,3.7384,3.739,3.7462,3.749,3.7502,3.7516,3.7484,3.7607,3.7619,3.763,3.7668,3.7684,3.7499,3.7498,3.7498,3.7497,0,3.7316,3.7357,3.7402,3.7427,3.7449,3.7501,3.7485,3.751,3.7491,3.7485,3.7543,3.7549,3.7578,3.7594,3.7575,3.7663,3.7645,3.7612,3.7557,3.7652,3.7687,3.7702,3.7506,3.7504,3.7502,3.7501,0,0,3.7475,3.7487,3.7503,3.7513,3.7527,3.7558,3.7607,3.7636,3.7657,3.7675,3.7714,3.7762,3.7731,3.7745,3.7727,3.7763,3.7853,3.7725,3.7724,3.7748,3.7949,3.7974,3.7992,3.7833,3.7836,3.7838,3.7948,0,3.7586,3.7672,3.7653,3.7737,3.7775,3.7734,3.7776,3.7788,3.7784,3.7814,3.7808,3.7842,3.7798,3.7807,3.784,3.7836,3.7893,3.7827,3.7869,3.7871,3.7867,3.801,3.8038,3.8141,3.7961,3.7964,3.7965,0,3.7728,3.7752,3.784,3.7846,3.7861,3.79,3.7925,3.7954,3.7966,3.796,3.7976,3.7951,3.7998,3.7943,3.8007,3.7962,3.7978,3.7978,3.7981,3.7984,3.7924,3.8017,3.8173,3.8188,3.7987,3.7985,3.7984,0,3.7835,3.7888,3.7948,3.7958,3.7967,3.7995,3.7999,3.8009,3.8027,3.8048,3.8059,3.8085,3.8099,3.8119,3.8101,3.8063,3.8167,3.8111,3.8163,3.8163,3.8187,3.8185,3.8347,3.8197,3.8197,3.8197,3.8197,0,3.7961,3.8017,3.7995,3.8032,3.8092,3.8069,3.8128,3.8128,3.8136,3.8171,3.8136,3.8169,3.8144,3.8174,3.816,3.8214,3.8221,3.8216,3.8212,3.8219,3.822,3.8229,3.8221,3.8201,3.82,3.8199,3.8199,0,3.809,3.8079,3.814,3.8144,3.8146,3.819,3.8192,3.8225,3.8217,3.8261,3.827,3.8259,3.8292,3.8277,3.8312,3.8302,3.8372,3.8358,3.8368,3.8364,3.8417,3.8412,3.859,3.8612,3.8448,3.845,3.8451,0,3.8172,3.8214,3.8221,3.8242,3.825,3.8284,3.8303,3.8281,3.8302,3.8318,3.8348,3.8379,3.8403,3.8458,3.8452,3.8478,3.8465,3.8525,3.8468,3.8474,3.8465,3.8463,3.8466,3.8537,3.8538,3.854,3.8541,0,3.8318,3.831,3.8338,3.8365,3.8388,3.8408,3.8425,3.8444,3.8422,3.8447,3.8481,3.8499,3.8535,3.8566,3.8588,3.8591,3.8563,3.8559,3.8572,3.858,3.8584,3.8582,3.8399,3.8555,3.8554,3.8553,3.8552,3.8551,3.8425,3.846,3.847,3.8503,3.8513,3.8529,3.856,3.8557,3.8586,3.8614,3.8598,3.8638,3.8648,3.8675,3.8682,3.8712,3.8688,3.8707,3.8712,3.8717,3.8724,3.858,3.8716,3.8716,3.8715,3.8715,3.8715,0,3.8568,3.8573,3.8603,3.8628,3.8653,3.8625,3.8641,3.8664,3.87,3.8711,3.8735,3.8774,3.8803,3.8799,3.8826,3.8851,3.8838,3.8858,3.8856,3.8857,3.8744,3.873,3.8868,3.8868,3.8868,3.8868,3.8868,3.8868,3.8646,3.8703,3.8696,3.8756,3.876,3.88,3.8811,3.8825,3.8834,3.888,3.8904,3.8901,3.8906,3.8933,3.8958,3.8956,3.8967,3.8992,3.8985,3.888,3.8865,3.8851,3.8837,3.8995,3.8995,3.9095,3.9096,3.9097]}]]